TimeCDT,TemperatureF,Dew PointF,Humidity,Sea Level PressureIn,VisibilityMPH,Wind Direction,Wind SpeedMPH,Gust SpeedMPH,PrecipitationIn,Events,Conditions,WindDirDegrees,DateUTC
12:15 AM,62.1,44.6,53,29.77,10.0,North,9.2,-,N/A,,Clear,10,2013-04-29 05:15:00
12:35 AM,61.9,43.7,51,29.77,10.0,NE,9.2,-,N/A,Thunderstorm,Clear,40,2013-04-29 05:35:00
12:55 AM,61.9,42.8,50,29.77,10.0,NNE,10.4,-,N/A,,Clear,20,2013-04-29 05:55:00
1:15 AM,60.8,43.0,52,29.78,10.0,NE,8.1,-,N/A,,Clear,40,2013-04-29 06:15:00
1:35 AM,60.8,42.1,50,29.77,10.0,NE,12.7,18.4,N/A,,Scattered Clouds,50,2013-04-29 06:35:00
1:55 AM,60.4,42.1,51,29.78,10.0,NE,9.2,-,N/A,,Scattered Clouds,40,2013-04-29 06:55:00
2:15 AM,59.5,42.6,54,29.77,10.0,NNE,8.1,-,N/A,,Scattered Clouds,30,2013-04-29 07:15:00
2:35 AM,59.2,43.5,56,29.76,10.0,NE,12.7,16.1,N/A,,Clear,50,2013-04-29 07:35:00
2:55 AM,59.4,43.7,56,29.76,10.0,NE,9.2,-,N/A,,Clear,40,2013-04-29 07:55:00
3:15 AM,58.1,44.6,61,29.77,10.0,NNE,8.1,16.1,N/A,,Clear,20,2013-04-29 08:15:00
3:35 AM,55.2,47.1,74,29.78,10.0,North,11.5,18.4,N/A,,Clear,360,2013-04-29 08:35:00
3:55 AM,53.1,46.8,79,29.79,10.0,North,12.7,-,N/A,,Clear,10,2013-04-29 08:55:00
4:15 AM,52.7,46.6,80,29.79,10.0,North,12.7,17.3,N/A,Thunderstorm,Clear,10,2013-04-29 09:15:00
4:35 AM,52.0,46.4,81,29.79,10.0,North,16.1,-,N/A,,Clear,10,2013-04-29 09:35:00
4:55 AM,51.1,45.9,82,29.79,10.0,North,13.8,-,N/A,,Clear,10,2013-04-29 09:55:00
5:15 AM,50.4,45.5,83,29.78,10.0,NNE,11.5,16.1,N/A,,Clear,20,2013-04-29 10:15:00
5:35 AM,50.0,44.6,82,29.79,10.0,North,12.7,-,N/A,,Clear,10,2013-04-29 10:35:00
5:55 AM,49.3,43.7,81,29.80,10.0,North,12.7,-,N/A,,Clear,10,2013-04-29 10:55:00
6:15 AM,48.7,42.6,79,29.80,10.0,North,11.5,-,N/A,,Clear,10,2013-04-29 11:15:00
6:35 AM,48.2,41.5,78,29.80,10.0,NNE,13.8,-,N/A,,Clear,20,2013-04-29 11:35:00
6:55 AM,48.2,40.3,74,29.81,10.0,NNE,10.4,-,N/A,,Clear,20,2013-04-29 11:55:00
7:15 AM,48.0,39.9,74,29.80,10.0,NNE,15.0,-,N/A,,Clear,20,2013-04-29 12:15:00
7:35 AM,48.2,40.1,74,29.81,10.0,NNE,10.4,-,N/A,,Scattered Clouds,30,2013-04-29 12:35:00
7:55 AM,48.2,39.7,73,29.81,10.0,North,10.4,-,N/A,,Scattered Clouds,10,2013-04-29 12:55:00
8:15 AM,48.4,40.1,73,29.82,10.0,North,6.9,-,N/A,,Mostly Cloudy,360,2013-04-29 13:15:00
8:35 AM,48.9,40.1,72,29.81,10.0,NNE,8.1,-,N/A,,Scattered Clouds,30,2013-04-29 13:35:00
8:55 AM,50.0,40.3,69,29.80,10.0,NE,5.8,-,N/A,,Scattered Clouds,40,2013-04-29 13:55:00
9:15 AM,51.1,41.2,69,29.78,10.0,NNE,10.4,-,N/A,,Scattered Clouds,20,2013-04-29 14:15:00
9:35 AM,53.4,42.1,65,29.77,10.0,NE,6.9,-,N/A,,Scattered Clouds,40,2013-04-29 14:35:00
9:55 AM,56.3,43.0,61,29.77,10.0,NNE,3.5,-,N/A,,Clear,30,2013-04-29 14:55:00
10:15 AM,59.4,44.8,58,29.76,10.0,NE,9.2,-,N/A,,Clear,50,2013-04-29 15:15:00
10:35 AM,61.2,45.9,57,29.76,10.0,ENE,5.8,-,N/A,,Clear,70,2013-04-29 15:35:00
10:55 AM,62.8,47.3,57,29.75,10.0,ENE,9.2,-,N/A,,Clear,70,2013-04-29 15:55:00
11:15 AM,64.9,47.5,53,29.74,10.0,ENE,9.2,-,N/A,,Clear,70,2013-04-29 16:15:00
11:35 AM,66.2,47.8,52,29.73,10.0,East,6.9,-,N/A,,Clear,100,2013-04-29 16:35:00
11:55 AM,67.8,47.8,49,29.72,10.0,ESE,8.1,-,N/A,,Clear,120,2013-04-29 16:55:00
12:15 PM,67.8,47.3,48,29.70,10.0,East,9.2,-,N/A,,Clear,80,2013-04-29 17:15:00
12:35 PM,68.7,47.3,46,29.69,10.0,East,10.4,-,N/A,,Clear,80,2013-04-29 17:35:00
12:55 PM,69.3,46.9,45,29.69,10.0,ESE,8.1,-,N/A,,Clear,110,2013-04-29 17:55:00
1:15 PM,69.3,47.1,45,29.69,10.0,ESE,6.9,-,N/A,,Clear,110,2013-04-29 18:15:00
1:35 PM,71.4,47.1,42,29.69,10.0,ESE,10.4,-,N/A,,Clear,120,2013-04-29 18:35:00
1:55 PM,73.4,46.9,39,29.69,10.0,SE,9.2,-,N/A,,Clear,130,2013-04-29 18:55:00
2:15 PM,73.6,46.0,37,29.67,10.0,South,6.9,-,N/A,,Clear,170,2013-04-29 19:15:00
2:35 PM,75.0,44.8,34,29.67,10.0,SSE,6.9,-,N/A,,Clear,150,2013-04-29 19:35:00
2:55 PM,76.5,47.1,35,29.65,10.0,SSE,9.2,-,N/A,,Clear,160,2013-04-29 19:55:00
3:15 PM,76.1,46.6,35,29.65,10.0,SE,10.4,18.4,N/A,,Clear,140,2013-04-29 20:15:00
3:35 PM,77.0,45.7,33,29.64,10.0,SE,9.2,-,N/A,,Clear,140,2013-04-29 20:35:00
3:55 PM,77.2,44.8,32,29.63,10.0,South,8.1,-,N/A,,Scattered Clouds,170,2013-04-29 20:55:00
4:15 PM,77.5,43.9,30,29.62,10.0,SSW,9.2,-,N/A,,Clear,210,2013-04-29 21:15:00
4:35 PM,78.4,43.3,29,29.61,10.0,SSW,9.2,-,N/A,,Clear,210,2013-04-29 21:35:00
4:55 PM,78.4,44.1,29,29.60,10.0,SSE,4.6,-,N/A,,Clear,160,2013-04-29 21:55:00
5:15 PM,78.4,42.1,27,29.60,10.0,SSW,8.1,-,N/A,,Clear,200,2013-04-29 22:15:00
5:35 PM,79.0,43.2,28,29.59,7.0,SSW,8.1,-,N/A,,Clear,210,2013-04-29 22:35:00
5:55 PM,78.1,43.0,29,29.58,10.0,South,4.6,-,N/A,,Clear,170,2013-04-29 22:55:00
6:15 PM,79.2,41.5,26,29.57,10.0,South,5.8,16.1,N/A,,Clear,170,2013-04-29 23:15:00
6:35 PM,78.1,40.3,26,29.56,10.0,South,5.8,-,N/A,,Clear,180,2013-04-29 23:35:00
6:55 PM,78.1,41.4,27,29.55,10.0,South,6.9,-,N/A,,Clear,190,2013-04-29 23:55:00
7:15 PM,77.4,42.4,29,29.55,10.0,South,5.8,-,N/A,,Clear,190,2013-04-30 00:15:00
7:35 PM,75.0,43.9,33,29.55,10.0,South,4.6,-,N/A,,Clear,180,2013-04-30 00:35:00
7:55 PM,72.9,44.8,37,29.54,10.0,Calm,Calm,-,N/A,,Clear,0,2013-04-30 00:55:00
8:15 PM,71.1,45.1,39,29.54,10.0,SE,3.5,-,N/A,,Clear,140,2013-04-30 01:15:00
8:35 PM,68.7,46.2,44,29.55,10.0,Calm,Calm,-,N/A,,Clear,0,2013-04-30 01:35:00
8:55 PM,65.1,45.3,49,29.55,10.0,SSE,5.8,-,N/A,,Clear,150,2013-04-30 01:55:00
9:15 PM,66.4,44.6,45,29.55,10.0,SSE,3.5,-,N/A,,Clear,150,2013-04-30 02:15:00
9:35 PM,62.8,45.0,52,29.55,7.0,Calm,Calm,-,N/A,,Clear,0,2013-04-30 02:35:00
9:55 PM,62.6,46.2,55,29.54,10.0,Calm,Calm,-,N/A,,Clear,0,2013-04-30 02:55:00
10:35 PM,62.6,45.0,52,29.51,10.0,SSW,3.5,-,N/A,,Clear,200,2013-04-30 03:35:00
10:55 PM,60.3,44.8,57,29.50,10.0,Calm,Calm,-,N/A,,Clear,0,2013-04-30 03:55:00
11:15 PM,61.5,44.1,53,29.49,10.0,South,3.5,-,N/A,,Clear,170,2013-04-30 04:15:00
11:35 PM,62.6,44.1,51,29.48,10.0,SSE,3.5,-,N/A,,Clear,150,2013-04-30 04:35:00
11:55 PM,61.3,44.1,53,29.48,10.0,South,4.6,-,N/A,,Clear,180,2013-04-30 04:55:00